EW5029 Weather Reports


Display with metric or nautical units.
time (UTC)temp
F
wind
direction
speed
MPH
gust
MPH
rain 1hr
in
rain 24hr
in
rain mn
in
humidity
%
barometer
mb
20260508131601 64 326 0.0 8.0 0.00 0.00 0.00 49 1018.5
20260508131057 65 329 2.0 8.0 0.00 0.00 0.00 47 1018.5
20260508130558 65 304 1.0 9.0 0.00 0.00 0.00 46 1018.5
20260508125556 67 23 1.0 4.0 0.00 0.00 0.00 46 1018.5
20260508125054 67 109 0.0 4.0 0.00 0.00 0.00 48 1018.5
20260508124553 67 111 1.0 4.0 0.00 0.00 0.00 48 1018.6
20260508124055 66 256 1.0 3.0 0.00 0.00 0.00 47 1018.6
20260508123551 66 117 1.0 6.0 0.00 0.00 0.00 51 1018.7
20260508123049 66 98 2.0 6.0 0.00 0.00 0.00 51 1018.7
20260508122548 66 109 1.0 5.0 0.00 0.00 0.00 52 1018.7
20260508122048 66 90 2.0 5.0 0.00 0.00 0.00 52 1018.7
20260508121552 66 40 0.0 3.0 0.00 0.00 0.00 51 1018.6
20260508121046 66 97 1.0 7.0 0.00 0.00 0.00 53 1018.6
20260508120547 66 161 1.0 5.0 0.00 0.00 0.00 54 1018.6
20260508120050 65 169 1.0 4.0 0.00 0.00 0.00 52 1018.6
20260508115545 65 291 1.0 4.0 0.00 0.00 0.00 53 1018.6
20260508115043 65 128 0.0 3.0 0.00 0.00 0.00 54 1018.7
20260508114542 64 118 0.0 5.0 0.00 0.00 0.00 55 1018.8
20260508114041 64 118 1.0 5.0 0.00 0.00 0.00 54 1018.7
20260508113540 64 128 1.0 4.0 0.00 0.00 0.00 55 1018.7
20260508113053 64 109 2.0 4.0 0.00 0.00 0.00 56 1018.8
20260508112540 64 146 1.0 3.0 0.00 0.00 0.00 56 1018.8
20260508112038 64 127 1.0 6.0 0.00 0.00 0.00 55 1018.8
20260508111537 64 228 1.0 6.0 0.00 0.00 0.00 55 1018.8
20260508111037 64 59 1.0 5.0 0.00 0.00 0.00 55 1018.9
20260508110536 64 47 1.0 5.0 0.00 0.00 0.00 56 1018.9
20260508110037 63 102 1.0 5.0 0.00 0.00 0.00 57 1018.9
20260508105535 63 153 1.0 4.0 0.00 0.00 0.00 59 1018.9
20260508105036 63 115 1.0 4.0 0.00 0.00 0.00 59 1019.0
20260508104534 63 134 1.0 4.0 0.00 0.00 0.00 59 1019.0
20260508104034 63 119 2.0 3.0 0.00 0.00 0.00 59 1019.0
20260508103533 63 212 0.0 3.0 0.00 0.00 0.00 60 1019.0
20260508103035 63 110 1.0 3.0 0.00 0.00 0.00 62 1019.0
20260508102533 62 110 1.0 4.0 0.00 0.00 0.00 61 1019.1
20260508102030 62 72 1.0 5.0 0.00 0.00 0.00 63 1019.1
20260508101535 62 83 2.0 5.0 0.00 0.00 0.00 61 1019.2
20260508101028 61 67 1.0 3.0 0.00 0.00 0.00 65 1019.1
20260508100527 61 124 1.0 3.0 0.00 0.00 0.00 65 1019.2
20260508100027 60 129 1.0 5.0 0.00 0.00 0.00 65 1019.3
20260508095527 60 62 2.0 5.0 0.00 0.00 0.00 67 1019.2
20260508095025 60 91 0.0 2.0 0.00 0.00 0.00 66 1019.3
20260508094522 60 109 1.0 3.0 0.00 0.00 0.00 67 1019.3
20260508094022 59 125 1.0 3.0 0.00 0.00 0.00 67 1019.3
20260508093523 59 23 1.0 3.0 0.00 0.00 0.00 68 1019.3
20260508093021 59 198 0.0 6.0 0.00 0.00 0.00 69 1019.3
20260508092520 59 66 1.0 6.0 0.00 0.00 0.00 68 1019.3
20260508092020 59 130 1.0 5.0 0.00 0.00 0.00 69 1019.3
20260508091530 59 113 1.0 4.0 0.00 0.00 0.00 69 1019.3
20260508091018 59 116 2.0 4.0 0.00 0.00 0.00 69 1019.3
20260508090517 58 69 1.0 4.0 0.00 0.00 0.00 71 1019.3
20260508090016 58 132 1.0 4.0 0.00 0.00 0.00 70 1019.3
20260508085514 57 129 1.0 4.0 0.00 0.00 0.00 72 1019.3
20260508085015 57 101 1.0 4.0 0.00 0.00 0.00 73 1019.3
20260508084511 56 125 1.0 4.0 0.00 0.00 0.00 72 1019.3
20260508084012 56 117 1.0 3.0 0.00 0.00 0.00 72 1019.3
20260508083509 56 109 1.0 3.0 0.00 0.00 0.00 73 1019.3
20260508083013 56 327 1.0 3.0 0.00 0.00 0.00 73 1019.3
20260508082507 56 126 0.0 3.0 0.00 0.00 0.00 74 1019.3
20260508082004 55 109 1.0 3.0 0.00 0.00 0.00 74 1019.3
20260508081508 55 131 1.0 5.0 0.00 0.00 0.00 74 1019.3
20260508081002 55 60 1.0 5.0 0.00 0.00 0.00 75 1019.3
20260508080501 54 62 1.0 4.0 0.00 0.00 0.00 77 1019.3
20260508080111 54 36 0.0 5.0 0.00 0.00 0.00 77 1019.3
20260508075559 54 55 1.0 5.0 0.00 0.00 0.00 78 1019.3
20260508075059 53 110 1.0 4.0 0.00 0.00 0.00 78 1019.3
20260508074555 53 35 0.0 3.0 0.00 0.00 0.00 79 1019.3
20260508074056 53 129 0.0 2.0 0.00 0.00 0.00 80 1019.4
20260508073552 53 129 0.0 5.0 0.00 0.00 0.00 80 1019.3
20260508073053 52 107 0.0 5.0 0.00 0.00 0.00 80 1019.4
20260508072550 52 67 0.0 3.0 0.00 0.00 0.00 80 1019.3
20260508072048 52 85 0.0 3.0 0.00 0.00 0.00 80 1019.3
20260508071552 52 49 0.0 3.0 0.00 0.00 0.00 81 1019.3
20260508071046 52 202 0.0 3.0 0.00 0.00 0.00 82 1019.3
20260508070546 51 355 0.0 6.0 0.00 0.00 0.00 82 1019.3
20260508070046 51 55 1.0 5.0 0.00 0.00 0.00 82 1019.3
20260508065543 51 138 1.0 3.0 0.00 0.00 0.00 82 1019.2
20260508065042 51 286 0.0 2.0 0.00 0.00 0.00 83 1019.1
20260508064543 51 70 0.0 4.0 0.00 0.00 0.00 84 1019.1
20260508064041 51 76 0.0 4.0 0.00 0.00 0.00 84 1019.1
20260508063539 51 112 0.0 3.0 0.00 0.00 0.00 84 1019.1
20260508063112 51 46 0.0 3.0 0.00 0.00 0.00 84 1019.0
20260508062537 50 26 0.0 3.0 0.00 0.00 0.00 84 1019.1
20260508062039 51 48 0.0 2.0 0.00 0.00 0.00 85 1019.0
20260508061534 50 112 0.0 2.0 0.00 0.00 0.00 85 1019.0
20260508061034 50 108 0.0 5.0 0.00 0.00 0.00 85 1019.0
20260508060537 50 66 0.0 5.0 0.00 0.00 0.00 85 1019.0
20260508060034 50 107 0.0 3.0 0.00 0.00 0.00 85 1018.9
20260508055531 50 60 0.0 4.0 0.00 0.00 0.00 85 1018.9
20260508055033 50 331 0.0 3.0 0.00 0.00 0.00 85 1018.9
20260508054529 50 79 0.0 4.0 0.00 0.00 0.00 85 1018.9
20260508054028 50 31 0.0 4.0 0.00 0.00 0.00 85 1018.8
20260508053527 50 84 0.0 3.0 0.00 0.00 0.00 85 1018.8
20260508053041 50 103 0.0 4.0 0.00 0.00 0.00 85 1018.8
20260508052524 50 28 0.0 4.0 0.00 0.00 0.00 85 1018.7
20260508052026 50 263 0.0 3.0 0.00 0.00 0.00 84 1018.6
20260508051522 50 13 0.0 3.0 0.00 0.00 0.00 84 1018.6
20260508051022 50 70 0.0 3.0 0.00 0.00 0.00 84 1018.6
20260508050521 50 80 0.0 3.0 0.00 0.00 0.00 84 1018.5
20260508050023 50 80 0.0 3.0 0.00 0.00 0.00 83 1018.5
20260508045519 50 55 1.0 3.0 0.00 0.00 0.00 83 1018.4
20260508045020 50 22 0.0 3.0 0.00 0.00 0.00 83 1018.4
20260508044517 50 85 0.0 2.0 0.00 0.00 0.00 83 1018.4
20260508044016 50 68 0.0 3.0 0.00 0.00 0.00 83 1018.4
20260508043518 50 82 1.0 3.0 0.00 0.00 0.00 83 1018.4
20260508043014 50 34 0.0 3.0 0.00 0.00 0.00 83 1018.4
20260508042514 50 38 0.0 3.0 0.00 0.00 0.00 83 1018.3
20260508042019 50 82 0.0 2.0 0.00 0.00 0.00 83 1018.3
20260508041518 50 67 0.0 2.0 0.00 0.00 0.00 83 1018.3
20260508041012 50 65 0.0 3.0 0.00 0.00 0.00 83 1018.3
20260508040512 50 288 0.0 3.0 0.00 0.00 0.00 83 1018.3
20260508040011 50 114 0.0 2.0 0.00 0.00 0.00 83 1018.3
20260508035511 50 355 0.0 2.0 0.00 0.00 0.00 83 1018.3
20260508035013 50 307 0.0 2.0 0.00 0.00 0.00 83 1018.2
20260508034516 50 80 0.0 2.0 0.00 0.00 0.00 83 1018.2
20260508034011 51 355 0.0 3.0 0.00 0.00 0.00 83 1018.2
20260508033509 51 327 0.0 3.0 0.00 0.00 0.00 83 1018.3
20260508033020 51 81 0.0 4.0 0.00 0.00 0.00 83 1018.2
20260508032508 51 62 0.0 4.0 0.00 0.00 0.00 82 1018.2
20260508032008 51 48 0.0 1.0 0.00 0.00 0.00 82 1018.1
20260508031508 51 5 0.0 3.0 0.00 0.00 0.00 82 1018.2
20260508031008 51 60 0.0 3.0 0.00 0.00 0.00 82 1018.1
20260508030508 51 80 0.0 3.0 0.00 0.00 0.00 82 1018.1
20260508030121 51 40 0.0 5.0 0.00 0.00 0.00 82 1018.1
20260508025507 51 70 1.0 5.0 0.00 0.00 0.00 82 1018.1
20260508025006 51 53 1.0 4.0 0.00 0.00 0.00 82 1018.0
20260508024509 51 70 0.0 2.0 0.00 0.00 0.00 82 1018.0
20260508024005 51 91 0.0 3.0 0.00 0.00 0.00 82 1018.0
20260508023506 51 53 0.0 6.0 0.00 0.00 0.00 82 1018.0
20260508023006 51 22 0.0 6.0 0.00 0.00 0.00 81 1018.1
20260508022510 51 40 0.0 2.0 0.00 0.00 0.00 81 1018.1
20260508022004 51 59 0.0 3.0 0.00 0.00 0.00 81 1018.1
20260508021504 51 70 0.0 3.0 0.00 0.00 0.00 81 1018.0
20260508021006 51 24 0.0 2.0 0.00 0.00 0.00 81 1018.1
20260508020506 52 43 0.0 2.0 0.00 0.00 0.00 81 1018.0
20260508020002 52 38 0.0 3.0 0.00 0.00 0.00 81 1018.0
20260508015501 52 306 0.0 3.0 0.00 0.00 0.00 80 1018.1
20260508015002 52 37 0.0 3.0 0.00 0.00 0.00 80 1018.0
20260508014505 52 76 0.0 5.0 0.00 0.00 0.00 80 1018.1
20260508014002 52 69 1.0 5.0 0.00 0.00 0.00 80 1018.1
20260508013600 52 81 0.0 3.0 0.00 0.00 0.00 80 1018.1
20260508013100 52 312 0.0 1.0 0.00 0.00 0.00 80 1018.1
20260508012604 52 39 0.0 4.0 0.00 0.00 0.00 80 1018.1
20260508012104 52 31 0.0 4.0 0.00 0.00 0.00 80 1018.1
20260508011559 52 82 0.0 2.0 0.00 0.00 0.00 79 1018.1
20260508011059 52 96 0.0 2.0 0.00 0.00 0.00 79 1018.1
20260508010558 52 341 0.0 2.0 0.00 0.00 0.00 79 1018.1
20260508010109 53 55 0.0 0.0 0.00 0.00 0.00 79 1018.1
20260508005600 53 55 0.0 3.0 0.00 0.00 0.00 79 1018.1
20260508005056 53 55 0.0 3.0 0.00 0.00 0.00 79 1018.1
20260508004556 53 313 0.0 2.0 0.00 0.00 0.00 79 1018.2
20260508004056 53 47 0.0 1.0 0.00 0.00 0.00 78 1018.1
20260508003555 53 76 0.0 2.0 0.00 0.00 0.00 78 1018.2
20260508003103 53 88 0.0 2.0 0.00 0.00 0.00 78 1018.2
20260508002555 53 29 0.0 3.0 0.00 0.00 0.00 78 1018.1
20260508002054 53 79 0.0 4.0 0.00 0.00 0.00 78 1018.2
20260508001557 53 337 1.0 4.0 0.00 0.00 0.00 78 1018.2
20260508001054 53 46 0.0 3.0 0.00 0.00 0.00 78 1018.2
20260508000554 53 335 0.0 3.0 0.00 0.00 0.00 78 1018.1
20260508000053 53 16 0.0 3.0 0.00 0.00 0.00 78 1018.1
20260507235553 53 355 0.0 3.0 0.00 0.00 0.00 78 1018.1
20260507235052 53 34 0.0 4.0 0.00 0.00 0.00 77 1018.2
20260507234552 53 31 0.0 4.0 0.00 0.00 0.00 77 1018.2
20260507234054 54 61 0.0 2.0 0.00 0.00 0.00 77 1018.2
20260507233551 54 41 0.0 4.0 0.00 0.00 0.00 77 1018.2
20260507233051 54 21 0.0 4.0 0.00 0.00 0.00 77 1018.2
20260507232550 54 51 1.0 4.0 0.00 0.00 0.00 77 1018.2
20260507232050 54 61 0.0 3.0 0.00 0.00 0.00 77 1018.2
20260507231551 54 11 0.0 2.0 0.00 0.00 0.00 77 1018.3
20260507231050 54 339 0.0 3.0 0.00 0.00 0.00 77 1018.3
20260507230550 54 32 0.0 3.0 0.00 0.00 0.00 77 1018.3
20260507230106 54 20 0.0 3.0 0.00 0.00 0.00 77 1018.2
20260507225548 54 43 0.0 5.0 0.00 0.00 0.00 77 1018.2
20260507225049 54 85 0.0 5.0 0.00 0.00 0.00 77 1018.2
20260507224549 54 23 0.0 4.0 0.00 0.00 0.00 77 1018.2
20260507224048 54 73 1.0 4.0 0.00 0.00 0.00 77 1018.2
20260507223548 54 344 0.0 4.0 0.00 0.00 0.00 77 1018.2
20260507223133 54 332 0.0 3.0 0.00 0.00 0.00 77 1018.2
20260507222547 54 342 0.0 5.0 0.00 0.00 0.00 77 1018.2
20260507222046 54 60 0.0 5.0 0.00 0.00 0.00 78 1018.2
20260507221547 54 58 1.0 5.0 0.00 0.00 0.00 78 1018.2
20260507221046 54 42 0.0 2.0 0.00 0.00 0.00 78 1018.2
20260507220545 54 47 0.0 2.0 0.00 0.00 0.00 77 1018.2
20260507220045 54 44 0.0 3.0 0.00 0.00 0.00 77 1018.2
20260507215544 54 71 0.0 3.0 0.00 0.00 0.00 77 1018.1
20260507215045 54 59 0.0 3.0 0.00 0.00 0.00 77 1018.1
20260507214552 54 46 0.0 3.0 0.00 0.00 0.00 77 1018.1
20260507214043 54 40 0.0 3.0 0.00 0.00 0.00 76 1018.1
20260507213543 54 355 0.0 5.0 0.00 0.00 0.00 76 1018.1
20260507213042 54 53 1.0 5.0 0.00 0.00 0.00 76 1018.1
20260507212542 54 40 1.0 3.0 0.00 0.00 0.00 75 1018.1
20260507212043 54 34 0.0 3.0 0.00 0.00 0.00 75 1018.1
20260507211547 54 26 0.0 4.0 0.00 0.00 0.00 75 1018.1
20260507211042 54 28 0.0 4.0 0.00 0.00 0.00 74 1018.1
20260507210545 55 65 0.0 5.0 0.00 0.00 0.00 74 1018.1
20260507210046 55 60 1.0 5.0 0.00 0.00 0.00 74 1018.1
20260507205542 55 43 0.0 4.0 0.00 0.00 0.00 73 1018.1
20260507205042 55 63 1.0 3.0 0.00 0.00 0.00 73 1018.1
20260507204544 55 321 0.0 4.0 0.00 0.00 0.00 73 1018.0
20260507204040 55 71 1.0 4.0 0.00 0.00 0.00 72 1018.0
20260507203541 55 336 0.0 3.0 0.00 0.00 0.00 72 1017.9
20260507203043 55 46 1.0 4.0 0.00 0.00 0.00 72 1018.0
20260507202539 55 51 1.0 4.0 0.00 0.00 0.00 71 1018.0
20260507202043 55 24 1.0 5.0 0.00 0.00 0.00 71 1017.9
20260507201542 55 67 1.0 7.0 0.00 0.00 0.00 70 1017.8
20260507201038 55 58 1.0 7.0 0.00 0.00 0.00 70 1017.7
20260507200537 55 64 1.0 6.0 0.00 0.00 0.00 69 1017.7
20260507200051 55 38 2.0 6.0 0.00 0.00 0.00 69 1017.6
20260507195536 55 65 2.0 8.0 0.00 0.00 0.00 68 1017.6
20260507195036 56 19 1.0 8.0 0.00 0.00 0.00 67 1017.6
20260507194535 56 53 1.0 8.0 0.00 0.00 0.00 67 1017.6
20260507194034 56 33 2.0 8.0 0.00 0.00 0.00 67 1017.5
20260507193534 56 59 2.0 9.0 0.00 0.00 0.00 66 1017.5
20260507193043 56 54 2.0 9.0 0.00 0.00 0.00 66 1017.5
20260507192533 57 110 1.0 6.0 0.00 0.00 0.00 65 1017.4
20260507192032 57 347 1.0 6.0 0.00 0.00 0.00 65 1017.4
20260507191533 57 333 0.0 6.0 0.00 0.00 0.00 64 1017.3
20260507191035 57 24 2.0 5.0 0.00 0.00 0.00 63 1017.3
20260507190532 57 49 1.0 4.0 0.00 0.00 0.00 63 1017.3
20260507190036 57 51 1.0 5.0 0.00 0.00 0.00 62 1017.3
20260507185530 58 46 1.0 4.0 0.00 0.00 0.00 62 1017.3
20260507185033 58 22 1.0 3.0 0.00 0.00 0.00 62 1017.3
20260507184531 58 324 0.0 3.0 0.00 0.00 0.00 61 1017.3
20260507184029 58 303 0.0 3.0 0.00 0.00 0.00 61 1017.3
20260507183530 58 31 0.0 3.0 0.00 0.00 0.00 61 1017.3
20260507183037 58 307 0.0 3.0 0.00 0.00 0.00 61 1017.2
20260507182530 58 360 0.0 5.0 0.00 0.00 0.00 61 1017.3
20260507182030 58 26 0.0 5.0 0.00 0.00 0.00 60 1017.2
20260507181533 58 344 0.0 4.0 0.00 0.00 0.00 60 1017.2
20260507181029 58 28 1.0 4.0 0.00 0.00 0.00 59 1017.2
20260507180530 58 14 1.0 4.0 0.00 0.00 0.00 58 1017.2
20260507180029 58 39 1.0 3.0 0.00 0.00 0.00 58 1017.2
20260507175531 58 56 0.0 3.0 0.00 0.00 0.00 58 1017.2
20260507175027 58 59 1.0 3.0 0.00 0.00 0.00 57 1017.2
20260507174528 58 300 1.0 3.0 0.00 0.00 0.00 56 1017.2
20260507174027 58 292 1.0 3.0 0.00 0.00 0.00 56 1017.2
20260507173526 58 26 0.0 5.0 0.00 0.00 0.00 57 1017.2
20260507173027 58 35 0.0 5.0 0.00 0.00 0.00 56 1017.1
20260507172527 58 318 1.0 5.0 0.00 0.00 0.00 56 1017.2
20260507172026 59 74 1.0 5.0 0.00 0.00 0.00 56 1017.1
20260507171526 59 64 3.0 5.0 0.00 0.00 0.00 56 1017.1
20260507171026 59 29 1.0 6.0 0.00 0.00 0.00 57 1017.1
20260507170526 59 51 2.0 4.0 0.00 0.00 0.00 57 1017.1
20260507170027 59 298 1.0 5.0 0.00 0.00 0.00 57 1017.1
20260507165525 59 290 1.0 5.0 0.00 0.00 0.00 57 1017.1
20260507165025 59 57 1.0 4.0 0.00 0.00 0.00 57 1017.0
20260507164525 59 323 1.0 4.0 0.00 0.00 0.00 56 1017.0
20260507164024 59 68 1.0 7.0 0.00 0.00 0.00 55 1017.0
20260507163527 59 31 2.0 7.0 0.00 0.00 0.00 54 1017.0
20260507163027 59 339 2.0 6.0 0.00 0.00 0.00 54 1017.1
20260507162525 59 30 1.0 5.0 0.00 0.00 0.00 54 1017.0
20260507162028 59 23 1.0 5.0 0.00 0.00 0.00 54 1017.0
20260507161529 59 61 0.0 5.0 0.00 0.00 0.00 54 1017.1
20260507161023 60 59 2.0 5.0 0.00 0.00 0.00 53 1017.0
20260507160524 60 5 1.0 3.0 0.00 0.00 0.00 54 1017.0
20260507160026 60 341 0.0 6.0 0.00 0.00 0.00 53 1016.9
20260507155523 60 65 1.0 6.0 0.00 0.00 0.00 53 1016.9
20260507155024 60 293 1.0 4.0 0.00 0.00 0.00 53 1016.9
20260507154527 60 67 1.0 4.0 0.00 0.00 0.00 52 1016.9
20260507154024 60 293 2.0 4.0 0.00 0.00 0.00 50 1016.9
20260507153522 60 304 0.0 5.0 0.00 0.00 0.00 50 1016.9
20260507153024 60 80 1.0 5.0 0.00 0.00 0.00 50 1016.8
20260507152521 60 65 1.0 4.0 0.00 0.00 0.00 51 1016.8
20260507152021 60 360 0.0 5.0 0.00 0.00 0.00 50 1016.8
20260507151525 60 12 2.0 6.0 0.00 0.00 0.00 50 1016.8
20260507151021 60 309 2.0 6.0 0.00 0.00 0.00 50 1016.8
20260507150521 60 58 1.0 6.0 0.00 0.00 0.00 51 1016.8
20260507150023 61 46 1.0 4.0 0.00 0.00 0.00 51 1016.7
20260507145520 61 53 1.0 4.0 0.00 0.00 0.00 49 1016.7
20260507145020 61 312 0.0 7.0 0.00 0.00 0.00 48 1016.7
20260507144527 62 53 1.0 7.0 0.00 0.00 0.00 47 1016.7
20260507144020 62 292 1.0 4.0 0.00 0.00 0.00 46 1016.6
20260507143520 62 39 1.0 3.0 0.00 0.00 0.00 45 1016.6
20260507143019 62 322 0.0 2.0 0.00 0.00 0.00 44 1016.7
20260507142520 62 71 1.0 5.0 0.00 0.00 0.00 45 1016.7
20260507142021 63 70 2.0 6.0 0.00 0.00 0.00 43 1016.7
20260507141518 63 63 1.0 8.0 0.00 0.00 0.00 44 1016.7
20260507141017 62 63 1.0 8.0 0.00 0.00 0.00 46 1016.8
20260507140518 62 72 2.0 5.0 0.00 0.00 0.00 47 1016.9
20260507140015 62 9 2.0 8.0 0.00 0.00 0.00 46 1017.0
20260507135519 61 288 2.0 8.0 0.00 0.00 0.00 48 1017.0
20260507135014 61 286 0.0 4.0 0.00 0.00 0.00 49 1017.0
20260507134514 61 81 2.0 4.0 0.00 0.00 0.00 49 1017.0
20260507134014 60 44 0.0 8.0 0.00 0.00 0.00 50 1017.0
20260507133516 60 297 1.0 8.0 0.00 0.00 0.00 52 1017.0
20260507133014 60 70 2.0 6.0 0.00 0.00 0.00 52 1017.1
20260507132515 60 33 1.0 6.0 0.00 0.00 0.00 53 1017.1
20260507132014 60 69 2.0 5.0 0.00 0.00 0.00 53 1017.0